Location: Newark
(61.5000°N, 23.7667°E)
Time: 05:59:40
(UTC+00:00)

NOAA 18 - Visible Passes

Search period start: 14 November 2019 00:00
Search period end: 24 November 2019 00:00
Orbit: 840 x 862 km, 99.1° (Epoch: 13 November)

Date Brightness Start Highest point End Pass type
(mag) Time Alt. Az. Time Alt. Az. Time Alt. Az.
14 Nov 6.9 14:56:15 10° NE 14:59:02 14° NNE 15:01:50 10° N visible
14 Nov 6.0 16:37:54 31° ENE 16:38:19 31° NE 16:43:05 10° NNW visible
14 Nov 5.7 18:19:54 54° NNW 18:19:54 54° NNW 18:24:07 10° NNW visible
14 Nov 7.4 20:01:55 20° WNW 20:01:55 20° WNW 20:04:25 10° NW visible
15 Nov 7.0 14:44:59 10° NE 14:47:30 13° NNE 14:50:00 10° N visible
15 Nov 6.1 16:26:04 27° ENE 16:26:40 28° NE 16:31:15 10° NNW visible
15 Nov 5.6 18:08:05 55° NNW 18:08:05 55° NNW 18:12:19 10° NNW visible
15 Nov 7.3 19:50:06 22° WNW 19:50:06 22° WNW 19:52:47 10° NNW visible
16 Nov 7.0 14:33:43 10° NE 14:35:57 13° NNE 14:38:10 10° N visible
16 Nov 6.2 16:14:15 24° NE 16:15:02 25° NE 16:19:25 10° N visible
16 Nov 5.6 17:56:16 54° N 17:56:16 54° N 18:00:32 10° NNW visible
16 Nov 7.2 19:38:17 25° NW 19:38:17 25° NW 19:41:07 10° NNW visible
17 Nov 6.4 16:02:26 22° NE 16:03:25 23° NE 16:07:35 10° N visible
17 Nov 5.6 17:44:26 51° NNE 17:44:26 51° NNE 17:48:43 10° NNW visible
17 Nov 7.0 19:26:27 27° NW 19:26:27 27° NW 19:29:25 10° NNW visible
18 Nov 6.5 15:50:36 19° NE 15:51:48 21° NE 15:55:45 10° N visible
18 Nov 5.6 17:32:37 47° NNE 17:32:37 47° NNE 17:36:55 10° NNW visible
18 Nov 6.9 19:14:37 30° NW 19:14:37 30° NW 19:17:41 10° NNW visible
19 Nov 6.6 15:38:46 17° NE 15:40:13 19° NE 15:43:55 10° N visible
19 Nov 5.7 17:20:47 43° NNE 17:20:47 43° NNE 17:25:06 10° NNW visible
19 Nov 6.7 19:02:48 33° NW 19:02:48 33° NW 19:05:57 10° NNW visible
19 Nov 8.0 20:44:48 11° NW 20:44:48 11° NW 20:45:17 10° NW visible
20 Nov 6.7 15:26:56 15° NE 15:28:38 17° NNE 15:32:05 10° N visible
20 Nov 5.8 17:08:56 40° NNE 17:08:56 40° NNE 17:13:18 10° NNW visible
20 Nov 6.5 18:50:57 35° NW 18:50:57 35° NW 18:54:12 10° NNW visible
20 Nov 7.9 20:32:59 13° NW 20:32:59 13° NW 20:33:55 10° NW visible
21 Nov 6.8 15:15:06 13° NE 15:17:04 16° NNE 15:20:15 10° N visible
21 Nov 5.9 16:57:06 36° NE 16:57:06 36° NE 17:01:28 10° NNW visible
21 Nov 6.4 18:39:07 37° NW 18:39:07 37° NW 18:42:26 10° NNW visible
21 Nov 7.8 20:21:07 14° NW 20:21:07 14° NW 20:22:27 10° NW visible
22 Nov 6.9 15:03:15 12° NE 15:05:30 15° NNE 15:08:24 10° N visible
22 Nov 6.0 16:45:16 32° NE 16:45:16 32° NE 16:49:39 10° NNW visible
22 Nov 6.3 18:27:16 39° NNW 18:27:16 39° NNW 18:30:40 10° NNW visible
22 Nov 7.7 20:09:18 16° NW 20:09:18 16° NW 20:10:53 10° NW visible
23 Nov 6.9 14:51:25 10° NE 14:53:56 14° NNE 14:56:35 10° N visible
23 Nov 6.1 16:33:25 29° NE 16:33:25 29° NE 16:37:49 10° NNW visible
23 Nov 6.2 18:15:26 40° NNW 18:15:26 40° NNW 18:18:52 10° NNW visible
23 Nov 7.6 19:57:27 18° NW 19:57:27 18° NW 19:59:16 10° NW visible
